Overview Statistics Trail Chart Weather Telemetry Raw packets
 

This is the latest recevied weather packets stored in our database for station/object HS3UAA-1. If no packets are shown the sender has not sent any weather packets the latest 10 day(s).

<< 29 30 31 32 33 34 35 >>
Time Temp. Humidity Pressure Rain* Wind** Luminosity Snow
1788440405 34.44° C 37% 994 hPa - - 0 W/m² -
1788440083 35° C 37% 994 hPa - - 0 W/m² -
1788439761 34.44° C 37% 994 hPa - - 0 W/m² -
1788439440 34.44° C 37% 994 hPa - - 0 W/m² -
1788439117 34.44° C 37% 994 hPa - - 0 W/m² -
1788438795 33.89° C 37% 994 hPa - - 0 W/m² -
1788438473 33.89° C 37% 994 hPa - - 0 W/m² -
1788438151 33.33° C 37% 994 hPa - - 0 W/m² -
1788437829 33.33° C 37% 994 hPa - - 0 W/m² -
1788437507 33.33° C 37% 994 hPa - - 0 W/m² -
1788437185 33.33° C 37% 994 hPa - - 0 W/m² -
1788436863 32.78° C 37% 994 hPa - - 0 W/m² -
1788436541 32.78° C 37% 993 hPa - - 0 W/m² -
1788436219 32.78° C 37% 993 hPa - - 0 W/m² -
1788435897 30.56° C 39% 993 hPa - - 0 W/m² -
1788435575 28.89° C 44% 993 hPa - - 0 W/m² -
1788435252 28.89° C 43% 993 hPa - - 0 W/m² -
1788434930 28.89° C 42% 993 hPa - - 0 W/m² -
1788434608 28.89° C 45% 993 hPa - - 0 W/m² -
1788434286 29.44° C 41% 993 hPa - - 0 W/m² -
1788433964 28.89° C 45% 993 hPa - - 0 W/m² -
1788433642 28.89° C 42% 993 hPa - - 0 W/m² -
1788433320 29.44° C 43% 993 hPa - - 0 W/m² -
1788432998 28.89° C 42% 993 hPa - - 0 W/m² -
1788432676 29.44° C 41% 993 hPa - - 0 W/m² -

* Rain since midnight (hover to see other rain measurements)
** Current wind speed in m/s (hover to see current wind gust speed)